Station PVDR1 - 8453662 - Providence Visibility, RI Image indicating link to RSS feed of recent meteorological observations for station PVDR1


Conditions at PVDR1 as of
(7:18 pm EDT)
2318 GMT on 05/22/2024:
     

Click on the graph icon in the table below to see a time series plot of the last five days of that observation.

5-day plot - Wind Direction Wind Direction (WDIR):SSW ( 210 deg true )
5-day plot - Wind Speed Wind Speed (WSPD): 11.1 kts
5-day plot - Wind Gust Wind Gust (GST): 15.9 kts
5-day plot - Atmospheric Pressure Atmospheric Pressure (PRES):29.90 in
5-day plot - Air Temperature Air Temperature (ATMP): 73.9 °F
5-day plot - Dew Point Dew Point (DEWP): 57.4 °F
5-day plot - Visibility Visibility (VIS): 5.9 nmi
5-day plot - Wind Speed at 10 Meters Wind Speed at 10 meters (WSPD10M): 11.7 kts
5-day plot - Wind Speed at 20 Meters Wind Speed at 20 meters (WSPD20M): 11.7 kts
5-day plot -  Wind Speed, Wind Gust and Atmospheric Pressure Combined plot of Wind Speed, Gust, and Air Pressure
NOS Water Level Observation Network Water Level
Previous observations
TIME
(EDT)
5-day plot - Wind Direction
WDIR
 
5-day plot - Wind Speed
WSPD
kts
5-day plot - Wind Gust
GST
kts
5-day plot - Wave Height
WVHT
ft
5-day plot - Dominant Wave Period
DPD
sec
5-day plot - Average Wave Period
APD
sec
5-day plot - Mean Wave Direction
MWD
 
5-day plot - Atmospheric Pressure
PRES
in
5-day plot - Pressure Tendency
PTDY
in
5-day plot - Air Temperature
ATMP
°F
5-day plot - Water Temperature
WTMP
°F
5-day plot - Dew Point
DEWP
°F
5-day plot - Salinity
SAL
psu
5-day plot - Visibility
VIS
nmi
5-day plot - Tide (above MLLW)
TIDE
ft
2024-05-22 07:12 pmSSW 14.0 17.1----29.90- 73.9- 57.4- 5.9-
2024-05-22 07:06 pmSSW 15.0 19.0----29.90- 74.5- 57.2- 5.9-
2024-05-22 07:00 pmSSW 12.0 19.0----29.91+0.01 74.7- 57.4- 5.9-
2024-05-22 06:54 pmSSW 13.0 18.1----29.91- 74.5- 57.4- 5.9-
2024-05-22 06:48 pmSSW 11.1 15.9----29.91----- 5.9-
2024-05-22 06:42 pmSSW 14.0 17.1----29.91----- 5.9-
2024-05-22 06:36 pmSSW 13.0 17.1----29.90----- 5.9-
2024-05-22 06:30 pm S 15.0 18.1----29.90- 75.2- 58.6- 5.9-
2024-05-22 06:24 pmSSW 14.0 19.0----29.90- 75.4- 58.3- 5.9-
2024-05-22 06:18 pmSSW 15.0 19.0----29.90- 75.2- 58.6- 5.9-
2024-05-22 06:12 pm S 12.0 15.9----29.90- 69.3- 60.8- 5.9-
2024-05-22 06:06 pm S 12.0 20.0----29.89- 69.6- 60.3- 5.9-
2024-05-22 06:00 pm-------29.90+0.00 69.8- 60.4- 5.9-
2024-05-22 05:54 pm-------29.90- 69.1- 60.8- 5.9-
2024-05-22 05:48 pm S 14.0 19.0----29.90----- 5.9-
2024-05-22 05:42 pm S 13.0 21.0----29.89----- 5.9-
2024-05-22 05:36 pmSSE 15.9 21.0----29.89----- 5.9-
2024-05-22 05:30 pmSSE 18.1 22.0----29.89- 68.4- 60.6- 5.9-
2024-05-22 05:24 pmSSE 19.0 22.0----29.89- 68.4- 60.8- 5.9-
2024-05-22 05:18 pmSSE 19.0 22.0----29.89- 68.4- 60.8- 5.9-
2024-05-22 05:12 pmSSE 18.1 21.0----29.90- 68.9- 61.3- 5.9-
2024-05-22 05:06 pmSSE 19.0 22.0----29.89- 69.3- 61.5- 5.9-
2024-05-22 05:00 pmSSE 19.0 22.0----29.89- 69.3- 61.5---
2024-05-22 04:54 pmSSE 19.0 21.0----29.88- 69.4- 61.7---
2024-05-22 04:48 pmSSE 19.0 21.0----29.88- 69.6- 61.9---
2024-05-22 04:42 pmSSE 15.9 21.0----29.88- 69.8- 62.4---
2024-05-22 04:36 pmSSE 17.1 19.0----29.88- 70.3- 62.6---
2024-05-22 04:30 pmSSE 15.9 21.0----29.88- 70.9- 62.4---
2024-05-22 04:24 pmSSE 17.1 22.0----29.88- 70.9- 62.6---
2024-05-22 04:18 pmSSE 17.1 20.0----29.88- 70.3- 62.4---
2024-05-22 04:12 pmSSE 17.1 20.0----29.88- 70.5- 62.4---
2024-05-22 04:06 pmSSE 18.1 22.0----29.89- 70.2- 62.4---
2024-05-22 04:00 pmSSE 17.1 20.0----29.89-0.03 70.2- 62.4---
2024-05-22 03:54 pmSSE 19.0 22.0----29.89- 70.2- 62.1---
2024-05-22 03:48 pmSSE 19.0 20.0----29.89- 70.3- 62.2---
2024-05-22 03:42 pmSSE 18.1 22.9----29.89- 70.7- 62.1---
2024-05-22 03:36 pmSSE 19.0 21.0----29.89- 70.7- 62.1---
2024-05-22 03:30 pmSSE 17.1 20.0----29.89- 70.5- 62.2---
2024-05-22 03:24 pmSSE 17.1 21.0----29.89- 70.7- 62.2---
2024-05-22 03:18 pmSSE 19.0 21.0----29.89- 70.7- 62.1---
2024-05-22 03:12 pmSSE 19.0 22.0----29.89- 71.1- 62.1---
2024-05-22 03:06 pmSSE 19.0 21.0----29.89- 71.2- 62.1---
2024-05-22 03:00 pmSSE 19.0 21.0----29.89-0.05 71.1- 62.2---
2024-05-22 02:54 pmSSE 18.1 20.0----29.89- 70.7- 62.4---
2024-05-22 02:48 pmSSE 17.1 21.0----29.89- 70.3- 62.2---
2024-05-22 02:42 pmSSE 19.0 21.0----29.89- 70.9- 62.1---
2024-05-22 02:36 pmSSE 19.0 21.0----29.90- 71.1- 62.2---
2024-05-22 02:30 pmSSE 19.0 21.0----29.90- 71.4- 62.1---
2024-05-22 02:24 pmSSE 19.0 22.0----29.90- 71.4- 62.2---
2024-05-22 02:18 pmSSE 19.0 22.0------------
2024-05-22 02:12 pmSSE 18.1 22.0------------
2024-05-22 02:06 pmSSE 19.0 20.0------------
2024-05-22 02:00 pmSSE 18.1 19.0------------
2024-05-22 01:54 pmSSE 17.1 21.0------------
2024-05-22 01:48 pmSSE 17.1 19.0------------
2024-05-22 01:42 pmSSE 15.9 19.0------------
2024-05-22 01:36 pmSSE 18.1 21.0------------
2024-05-22 01:30 pmSSE 18.1 21.0----29.91-------
2024-05-22 01:24 pmSSE 18.1 20.0----29.91-------
2024-05-22 01:18 pmSSE 17.1 19.0------------
2024-05-22 01:12 pmSSE 18.1 20.0------------
2024-05-22 01:06 pmSSE 15.9 20.0------------
2024-05-22 01:00 pmSSE 17.1 19.0----29.92-0.06------
2024-05-22 12:54 pmSSE 17.1 19.0----29.92-------
2024-05-22 12:48 pmSSE 14.0 18.1------------
2024-05-22 12:42 pmSSE 15.0 18.1------------
2024-05-22 12:36 pmSSE 15.9 18.1------------
2024-05-22 12:30 pmSSE 15.0 18.1------------
2024-05-22 12:24 pmSSE 13.0 15.9------------
2024-05-22 12:18 pmSSE 14.0 18.1------ 72.3- 62.4---
2024-05-22 12:12 pmSSE 13.0 14.0------ 72.3- 62.4---
2024-05-22 12:06 pmSSE 11.1 15.0------ 72.9- 62.1---
2024-05-22 12:00 pmSSE 13.0 15.0----29.94-0.04 72.5- 61.9---
2024-05-22 11:54 amSSE 11.1 15.9----29.94- 72.9- 62.1---
2024-05-22 11:48 amSSE 14.0 15.0----29.95- 72.3- 62.2---
2024-05-22 11:42 amSSE 13.0 14.0----29.95- 72.5- 62.4---
2024-05-22 11:36 amSSE 8.9 14.0----29.95- 72.1- 62.8---
2024-05-22 11:30 am S 6.0 12.0----29.96- 71.4- 62.6---
2024-05-22 11:24 amSSE 7.0 13.0----29.96- 71.2- 62.6---
2024-05-22 11:18 amSSE 12.0 14.0----29.96- 71.6- 62.2---
2024-05-22 11:12 amSSE 12.0 14.0----29.96- 71.2- 62.4---
2024-05-22 11:06 amSSE 8.0 13.0----29.96- 71.4- 62.4---
2024-05-22 11:00 amSSE 12.0 13.0----29.96-0.04 71.4- 62.1---
2024-05-22 10:54 amSSE 13.0 15.9----29.96- 70.7- 62.2---
2024-05-22 10:48 amSSE 8.9 11.1----29.97-------
2024-05-22 10:42 amSSE 8.0 11.1----29.97-------
2024-05-22 10:36 amSSE 9.9 12.0----29.97-------
2024-05-22 10:30 amSSE 9.9 12.0------------
2024-05-22 10:24 amSSE 8.9 11.1------------
2024-05-22 10:18 amSSE 9.9 12.0------------
2024-05-22 10:12 amSSE 9.9 11.1------------
2024-05-22 10:06 amSSE 8.0 9.9------------
2024-05-22 10:00 am S 6.0 8.0----29.98-0.03 67.5- 61.7---
2024-05-22 09:54 am S 5.1 7.0----29.98- 67.1- 61.7---
2024-05-22 09:48 am S 5.1 7.0----29.98-------
2024-05-22 09:42 am S 5.1 8.0----29.98-------
2024-05-22 09:36 am S 7.0 8.9----29.98-------
2024-05-22 09:30 am S 6.0 8.9------------
2024-05-22 09:24 am S 7.0 8.9------------
2024-05-22 09:18 am S 7.0 8.0----29.98-------
2024-05-22 09:12 am S 6.0 8.0----29.98-------
2024-05-22 09:06 am S 6.0 8.0----29.98-------
2024-05-22 09:00 amSSE 6.0 8.0----29.98+0.00 64.2- 60.3---
2024-05-22 08:54 am S 6.0 8.0----29.98- 63.9- 59.9---
2024-05-22 08:48 am S 6.0 8.0----29.99- 63.5- 59.7---
2024-05-22 08:42 amSSE 6.0 7.0----29.99- 63.0- 59.5---
2024-05-22 08:36 amSSE 7.0 8.9----29.99- 62.6- 59.5---
2024-05-22 08:30 amSSE 8.0 9.9----29.99- 62.1- 59.0---
2024-05-22 08:24 amSSE 8.9 9.9----30.00- 62.1- 59.4---
2024-05-22 08:18 amSSE 8.9 9.9----30.00- 61.7- 59.2---
2024-05-22 08:12 amSSE 8.9 9.9----30.00- 61.5- 59.0---
2024-05-22 08:00 amSSE 8.0 9.9----30.00+0.04 61.3- 59.0---
2024-05-22 07:54 amSSE 8.9 9.9----30.00- 61.5- 59.2---
2024-05-22 07:48 amSSE 8.9 9.9----30.00- 61.0- 58.6---
2024-05-22 07:42 amSSE 8.0 9.9----30.00- 61.2- 58.6---
2024-05-22 07:36 amSSE 7.0 8.0----30.00- 61.2- 58.6---
2024-05-22 07:30 amSSE 8.0 8.9----30.00- 61.0- 58.5---
2024-05-22 07:24 amSSE 7.0 8.0----30.01- 61.0- 58.5---
2024-05-22 07:18 amSSE 6.0 7.0----30.01- 60.8- 58.3---
2024-05-22 07:12 amSSE 5.1 6.0----30.01- 60.6- 58.3---
2024-05-22 07:06 amSSE 5.1 7.0----30.01- 60.3- 58.1---
2024-05-22 07:00 amSSE 5.1 6.0----30.00+0.05 59.7- 57.6---
2024-05-22 06:54 am S 5.1 6.0----30.00- 59.5- 57.4---
2024-05-22 06:48 am S 5.1 6.0----30.00- 59.4- 57.4---
2024-05-22 06:42 am S 5.1 6.0----30.00- 59.0- 57.0---
2024-05-22 06:36 am S 5.1 6.0----30.00- 58.3- 56.3---
2024-05-22 06:30 am S 5.1 7.0----29.99- 58.3- 56.5---
2024-05-22 06:24 am S 6.0 7.0----29.99- 58.1- 56.5---
2024-05-22 06:18 am S 6.0 7.0----29.99- 57.9- 56.3---
2024-05-22 06:12 am S 7.0 8.0----29.98- 57.9- 56.3---
2024-05-22 06:06 am S 8.0 8.0----29.98- 57.9- 56.3---
2024-05-22 06:00 am S 8.0 8.9----29.98+0.02 57.7- 56.1---
2024-05-22 05:54 am S 7.0 8.0----29.98- 57.7- 56.3---
2024-05-22 05:48 am S 6.0 7.0----29.97- 57.6- 56.1---
2024-05-22 05:42 am S 6.0 8.0----29.97- 57.6- 56.1---
2024-05-22 05:36 am S 6.0 8.0----29.97- 57.6- 56.1---
2024-05-22 05:30 am S 7.0 8.0----29.97- 57.4- 55.9---
2024-05-22 05:24 am S 7.0 8.0----29.97- 57.4- 55.9---
2024-05-22 05:18 am S 6.0 7.0----29.97- 57.4- 56.1---
2024-05-22 05:12 am S 6.0 7.0----29.97- 57.4- 56.1---
2024-05-22 05:06 am S 6.0 8.0----29.96- 57.4- 56.1---
2024-05-22 05:00 am S 7.0 8.0----29.96+0.00 57.6- 56.3---
2024-05-22 04:54 am S 6.0 8.0----29.96- 57.6- 56.1---
2024-05-22 04:48 am S 6.0 8.0----29.96- 57.6- 56.3---
2024-05-22 04:42 am S 6.0 7.0----29.96- 57.2- 55.9---
2024-05-22 04:36 am S 5.1 7.0----29.96- 57.4- 56.1---
2024-05-22 04:30 am S 6.0 8.9----29.96- 57.2- 55.9---
2024-05-22 04:24 am S 7.0 8.9----29.96- 57.4- 56.1---
2024-05-22 04:18 am S 7.0 8.0----29.96- 57.4- 56.1---
2024-05-22 04:12 am S 7.0 8.9----29.95- 57.4- 56.1---
2024-05-22 04:06 am S 7.0 8.0----29.95- 57.2- 55.9---
2024-05-22 04:00 am S 6.0 8.0----29.95-0.02 57.4- 56.1---
2024-05-22 03:54 am S 7.0 8.9----29.96- 57.0- 55.8---
2024-05-22 03:48 am S 7.0 8.9----29.96- 57.4- 56.1---
2024-05-22 03:42 am S 8.9 9.9----29.96- 57.4- 55.9---
2024-05-22 03:36 am S 8.9 9.9----29.96- 57.4- 55.9---
2024-05-22 03:30 am S 8.0 9.9----29.95- 57.7- 56.5---
2024-05-22 03:24 am S 8.0 8.9----29.95- 57.6- 56.1---
2024-05-22 03:18 am S 8.0 8.9----29.96- 57.6- 56.1---
2024-05-22 03:12 am S 7.0 8.9----29.96- 57.7- 56.5---
2024-05-22 03:06 am S 7.0 8.9----29.96- 57.7- 56.5---
2024-05-22 03:00 am S 8.0 8.9----29.96-0.02 57.7- 56.5---
2024-05-22 02:54 am S 7.0 8.9----29.96- 57.9- 56.7---
2024-05-22 02:48 am S 7.0 8.9----29.96- 57.9- 56.7---
2024-05-22 02:42 am S 8.0 9.9----29.96- 57.9- 56.8---
2024-05-22 02:36 am S 8.0 9.9----29.96- 57.9- 56.7---
2024-05-22 02:30 am S 8.0 9.9----29.96- 58.3- 57.2---
2024-05-22 02:24 am S 8.0 9.9----29.96- 58.1- 57.0---
2024-05-22 02:18 am S 7.0 11.1----29.96- 58.3- 57.2---
2024-05-22 02:12 am S 8.9 11.1----29.96- 58.1- 56.8---
2024-05-22 02:06 am S 8.9 9.9----29.96- 58.3- 57.0---
2024-05-22 02:00 am S 8.9 9.9----29.96-0.02 58.1- 56.8---
2024-05-22 01:54 am S 8.0 8.9----29.97- 58.3- 57.0---
2024-05-22 01:48 am S 8.0 8.9----29.97- 58.5- 57.2---
2024-05-22 01:42 am S 6.0 8.0----29.97- 58.5- 57.2---
2024-05-22 01:36 am S 7.0 8.0----29.97- 58.6- 57.4---
2024-05-22 01:30 am S 5.1 7.0----29.97- 58.6- 57.4---
2024-05-22 01:24 am S 7.0 8.0----29.97- 58.5- 57.2---
2024-05-22 01:18 am S 8.0 8.9----29.97- 58.6- 57.4---
2024-05-22 01:12 am S 7.0 9.9----29.97- 58.8- 57.7---
2024-05-22 01:06 am S 8.0 11.1----29.97- 58.8- 57.6---
2024-05-22 01:00 am S 8.0 11.1----29.97-0.02 59.0- 57.9---
2024-05-22 12:54 amSSE 8.9 11.1----29.97- 58.8- 57.6---
2024-05-22 12:48 amSSE 8.9 11.1----29.97- 58.8- 57.6---
2024-05-22 12:42 am S 8.9 11.1----29.97- 58.8- 57.6---
2024-05-22 12:36 am S 9.9 11.1----29.97- 59.0- 57.6---
2024-05-22 12:30 am S 8.9 9.9----29.97- 58.8- 57.4---
2024-05-22 12:24 am S 8.0 8.9----29.98- 59.0- 57.6---
2024-05-22 12:18 am S 7.0 8.9----29.98- 58.8- 57.4---
2024-05-22 12:12 am S 7.0 8.0----29.98- 58.6- 57.2---
2024-05-22 12:06 am S 6.0 8.0----29.98- 58.6- 57.4---
2024-05-22 12:00 am S 6.0 9.9----29.98+0.01 58.8- 57.6---
2024-05-21 11:54 pm S 7.0 9.9----29.98- 58.8- 57.7---
2024-05-21 11:48 pm S 8.0 8.9----29.98- 58.6- 57.4---
2024-05-21 11:42 pm S 8.0 11.1----29.98- 58.5- 57.2---
2024-05-21 11:36 pm S 8.9 12.0----29.98- 58.5- 57.2---
2024-05-21 11:30 pm S 11.1 13.0----29.98- 58.5- 57.2---
2024-05-21 11:24 pm S 11.1 14.0----29.98- 58.6- 57.4---
2024-05-21 11:18 pm S 8.9 12.0----29.98- 58.5- 57.0---
2024-05-21 11:12 pmSSE 9.9 12.0----29.99- 58.6- 57.2---
2024-05-21 11:06 pmSSE 9.9 12.0----29.99- 58.6- 57.2---
2024-05-21 11:00 pmSSE 9.9 12.0----29.99+0.04 58.5- 56.8---
2024-05-21 10:54 pmSSE 11.1 12.0----29.98- 58.5- 56.8---
2024-05-21 10:48 pmSSE 9.9 11.1----29.98- 58.6- 57.0---
2024-05-21 10:42 pmSSE 8.9 9.9----29.99- 58.6- 57.0---
2024-05-21 10:36 pmSSE 8.9 9.9----29.99- 58.8- 57.2---
2024-05-21 10:30 pmSSE 8.9 9.9----29.99- 58.8- 57.0---
2024-05-21 10:24 pm SE 8.0 8.9----29.99- 58.8- 57.0---
2024-05-21 10:18 pmSSE 8.0 8.9----29.99- 59.2- 57.2---
2024-05-21 10:12 pmSSE 8.0 8.9----30.00- 59.4- 57.6---
2024-05-21 10:06 pmSSE 8.0 11.1----30.00- 59.2- 57.2---
2024-05-21 10:00 pmSSE 9.9 12.0----29.99+0.04 59.2- 57.2---
2024-05-21 09:54 pmSSE 9.9 13.0----29.99- 59.2- 57.2---
2024-05-21 09:48 pmSSE 11.1 13.0----29.98- 59.5- 57.6---
2024-05-21 09:42 pmSSE 12.0 14.0----29.98- 59.5- 57.6---
2024-05-21 09:36 pmSSE 12.0 14.0----29.98- 59.5- 57.6---
2024-05-21 09:30 pmSSE 13.0 15.0----29.97- 59.5- 57.4---
2024-05-21 09:24 pmSSE 13.0 15.0----29.97- 59.7- 57.6---
2024-05-21 09:18 pmSSE 13.0 14.0----29.97- 59.7- 57.6---
2024-05-21 09:12 pmSSE 13.0 14.0----29.97- 59.7- 57.6---
2024-05-21 09:06 pmSSE 13.0 14.0----29.97- 59.7- 57.6---
2024-05-21 09:00 pmSSE 12.0 14.0----29.97+0.03 59.7- 57.6---
2024-05-21 08:54 pmSSE 11.1 14.0----29.97- 59.7- 56.8---
2024-05-21 08:48 pmSSE 11.1 15.0----29.97- 59.9- 58.1---
2024-05-21 08:42 pmSSE 13.0 15.0----29.96- 59.9- 57.7---
2024-05-21 08:36 pmSSE 13.0 15.0----29.96- 59.9- 57.6---
2024-05-21 08:30 pmSSE 13.0 15.0----29.96- 60.3- 57.7---
2024-05-21 08:24 pmSSE 14.0 15.0----29.96- 60.4- 57.7---
2024-05-21 08:18 pmSSE 13.0 15.0----29.96- 60.4- 57.6---
2024-05-21 08:12 pmSSE 14.0 15.0----29.96- 60.4- 57.6---
2024-05-21 08:06 pmSSE 14.0 15.9----29.96- 60.8- 57.7---
2024-05-21 08:00 pmSSE 13.0 15.9----29.95+0.01 61.0- 57.6---
2024-05-21 07:54 pmSSE 14.0 15.0----29.95- 61.2- 57.6---